SCP
0 0 0 0 0 0 0 0 0 0 0 0 0 0 0 0 1 1 1 1 1 1 1 1 0 0 0 0 0 0 0 0 0 0 0 0 0 0 0 0 0 1 1
0 0 0 0 0 0 0 0 0 0 0 0 0 0 0 0 1 1 1 1 1 1 1 1 1 0 0 0 0 0 0 0 0 0 0 0 0 0 0 0 1 1 1
0 0 0 0 0 0 0 0 0 0 0 0 0 0 0 0 0 1 0 0 1 1 1 1 1 1 1 0 0 0 0 0 0 0 0 0 0 0 0 0 1 1 1
0 0 0 0 0 0 0 0 0 0 0 0 0 0 0 0 0 0 0 0 0 0 1 1 1 1 1 1 0 0 0 0 0 0 0 0 0 0 0 0 1 1 1
0 0 0 0 0 0 0 0 0 0 0 0 0 0 0 0 0 0 0 0 0 0 0 1 1 1 1 1 1 0 0 0 0 0 0 0 0 0 0 1 1 1 1
0 0 0 0 0 0 0 0 0 0 0 0 0 0 0 0 0 0 0 0 0 0 1 1 1 1 1 1 1 1 0 0 0 0 0 0 0 0 0 1 1 1 1
0 0 0 0 0 0 0 0 0 0 0 0 0 0 0 0 0 0 0 0 0 0 1 1 0 0 0 1 1 1 1 0 0 0 0 0 0 0 0 1 1 1 1
0 0 0 0 0 0 0 0 0 0 0 0 0 0 0 0 0 0 0 0 0 0 0 0 0 0 0 0 0 1 1 1 1 1 1 0 0 0 0 1 1 1 1
0 0 0 0 0 0 0 0 0 0 0 0 0 0 0 0 0 0 0 0 0 0 0 0 0 0 0 0 0 0 1 1 1 1 1 1 1 1 1 1 1 1 1
0 0 0 0 0 0 0 0 0 0 0 0 0 0 0 0 0 0 0 0 0 0 0 0 0 0 0 0 0 0 0 0 1 1 1 1 1 1 1 1 1 1 1
0 0 0 0 0 0 0 0 0 0 0 0 0 0 0 0 0 0 0 0 0 0 0 0 0 0 0 0 0 0 0 0 1 1 1 1 1 1 1 1 1 1 1
0 0 0 0 0 0 0 0 0 0 0 0 0 0 0 0 0 0 0 0 0 0 0 0 0 0 0 0 0 0 0 0 0 1 1 1 1 1 1 1 1 1 1
0 0 0 0 0 0 0 0 0 0 0 0 0 0 0 0 0 0 0 0 0 0 0 0 0 0 0 0 0 0 0 0 0 0 0 1 1 1 1 1 1 1 1
0 0 0 0 0 0 0 0 0 0 0 0 0 0 0 0 0 0 0 0 0 0 0 0 0 0 0 0 0 0 0 0 0 0 0 0 0 1 1 1 1 1 1
0 0 0 0 0 0 0 0 0 0 0 0 0 0 0 0 0 0 0 0 0 0 0 0 0 0 0 0 0 0 0 0 0 0 0 0 0 0 1 1 1 1 1
0 0 0 0 0 0 0 0 0 0 0 0 0 0 0 0 0 0 0 0 0 0 0 0 0 0 0 0 0 0 0 0 0 0 0 0 0 0 0 0 0 0 0
0 0 0 0 0 0 0 0 0 0 0 0 0 0 0 0 0 0 0 0 0 0 0 0 0 0 0 0 0 0 0 0 0 0 0 0 0 0 0 0 0 0 0
0 0 0 0 0 0 0 0 0 0 0 0 0 0 0 0 0 0 0 0 0 0 0 0 0 0 0 0 0 0 0 0 0 0 0 0 0 0 0 0 0 0 0
0 0 0 0 0 0 0 0 0 0 0 0 0 0 0 0 0 0 0 0 0 0 0 0 0 0 0 0 0 0 0 0 0 0 0 0 0 0 0 0 0 0 0
0 0 0 0 0 0 0 0 0 0 0 0 0 0 0 0 0 0 0 0 0 0 0 0 0 0 0 0 0 0 0 0 0 0 0 0 0 0 0 0 0 0 0
0 0 0 0 0 0 0 0 0 0 0 0 0 0 0 0 0 0 0 0 0 0 0 0 0 0 0 0 0 0 0 0 0 0 0 0 0 0 0 0 0 0 0
0 0 0 0 0 0 0 0 0 0 0 0 0 0 0 0 0 0 0 0 0 0 0 0 0 0 0 0 0 0 0 0 0 0 0 0 0 0 0 0 0 0 0
0 0 0 0 0 0 0 0 0 0 0 0 0 0 0 0 0 0 0 0 0 0 0 0 0 0 0 0 0 0 0 0 0 0 0 0 0 0 0 0 0 0 0
0 0 0 0 0 0 0 0 0 0 0 0 0 0 0 0 0 0 0 0 0 0 0 0 0 0 0 0 0 0 0 0 0 0 0 0 0 0 0 0 0 0 0
0 0 0 0 0 0 0 0 0 0 0 0 0 0 0 0 0 0 0 0 0 0 0 0 0 0 0 0 0 0 0 0 0 0 0 0 0 0 0 0 0 0 0
0 0 0 0 0 0 0 0 0 0 0 0 0 0 0 0 0 0 0 0 0 0 0 0 0 0 0 0 0 0 0 0 0 0 0 0 0 0 0 0 0 0 0
Wind_Speed
2 2 2 2 2 2 2 3 3 3 3 3 2 1 0 1 1 1 1 4 5 6 6 7 8 9 8 8 8 8 8 8 8 8 8 9 9 10 11 11 11 12 13
2 2 2 3 3 2 2 2 3 3 2 2 3 3 1 0 0 1 1 1 3 4 5 6 7 8 9 9 8 8 8 8 8 8 8 8 9 10 10 11 11 12 12
3 2 2 3 3 3 3 3 3 3 3 3 3 3 2 1 0 1 1 1 1 2 3 4 5 7 8 9 9 8 8 8 8 8 8 9 9 9 10 11 11 11 11
3 3 3 2 3 3 3 2 2 3 3 3 2 2 2 2 1 0 1 1 1 1 2 3 4 5 6 8 9 9 9 8 8 8 8 8 9 9 10 10 10 10 10
3 3 2 2 3 3 3 3 2 2 2 3 2 2 2 1 1 1 1 0 1 1 1 2 3 4 5 7 8 9 9 9 9 9 8 9 9 9 9 10 10 10 10
3 3 2 3 3 3 3 3 3 2 2 2 2 3 2 2 1 1 0 0 0 0 1 1 1 2 4 5 6 7 9 9 10 9 9 9 9 9 10 10 10 10 10
2 3 2 3 3 2 3 3 2 3 3 2 3 3 3 3 3 1 1 1 1 1 1 1 1 1 1 3 5 6 7 8 9 9 9 10 10 10 10 10 10 11 11
1 2 2 2 2 2 3 4 3 2 2 3 2 2 3 4 4 3 2 1 1 1 1 1 1 1 1 1 2 4 5 6 9 9 9 10 11 10 10 10 10 11 11
0 1 2 2 2 2 2 2 2 2 2 3 1 2 2 1 2 3 3 2 2 1 1 1 1 0 1 1 1 2 4 5 7 9 9 9 10 11 10 10 10 10 11
1 0 1 1 1 1 2 2 2 1 2 2 2 1 1 2 1 1 3 3 2 2 1 1 0 0 0 1 1 3 5 5 6 8 9 9 10 11 11 10 10 11 11
2 1 0 1 1 1 1 2 2 2 1 1 1 1 1 1 1 2 1 2 2 2 1 1 0 0 0 1 1 2 4 5 5 6 8 9 9 11 11 11 11 11 12
2 2 1 0 0 1 1 1 1 2 1 1 1 1 1 1 0 1 1 1 1 2 1 1 1 0 0 1 2 3 4 4 4 5 6 7 8 10 11 12 12 12 12
1 2 1 1 1 1 1 1 1 1 1 1 1 1 0 0 1 1 1 0 1 1 2 1 1 0 0 0 1 3 4 5 4 5 5 5 6 7 9 11 12 13 13
2 2 2 2 1 1 0 0 1 1 1 1 1 1 1 1 0 1 2 1 1 2 1 2 1 1 0 1 1 2 2 4 4 5 5 5 5 6 7 8 9 10 11
1 2 2 2 1 1 1 0 1 1 1 1 1 1 1 1 1 0 1 2 2 0 2 2 1 1 1 1 1 1 1 3 4 5 5 6 5 6 7 7 8 8 9
1 1 1 1 1 1 1 1 1 2 1 2 1 1 1 1 1 0 0 1 2 2 1 2 2 1 1 1 2 2 2 3 4 4 5 5 5 6 6 7 7 8 8
1 1 2 2 2 2 2 1 1 2 2 2 2 1 2 1 1 1 0 0 1 2 2 2 1 1 0 1 1 1 1 2 2 4 5 5 5 5 5 6 7 7 7
2 2 1 1 2 2 2 2 3 2 2 2 2 1 2 1 1 1 0 0 1 1 2 2 1 1 1 1 1 2 1 2 2 3 5 5 5 5 5 6 6 7 7
3 3 2 2 2 2 2 2 3 3 3 3 3 2 3 1 1 1 1 1 1 1 1 2 2 1 1 1 0 1 0 0 1 2 4 4 5 6 6 6 6 6 6
3 3 3 2 2 2 1 1 1 2 3 3 3 3 3 3 3 3 2 2 2 1 1 1 2 2 1 1 1 1 1 1 1 1 1 2 3 4 5 6 7 7 7
4 3 3 4 3 2 2 1 1 1 2 3 3 3 4 4 5 4 2 3 2 2 1 2 2 2 2 1 2 2 2 1 1 0 0 1 1 1 2 4 6 7 7
4 4 4 4 4 4 5 4 1 1 1 2 3 4 4 4 5 6 5 5 4 3 3 3 3 3 4 3 2 2 2 1 2 1 2 1 1 2 2 2 5 7 8
4 4 4 4 4 5 8 7 5 1 1 2 3 3 3 3 4 3 5 6 6 7 6 5 4 5 4 5 4 3 3 3 3 2 2 2 1 2 2 2 6 7 8
3 3 4 4 4 7 10 9 8 3 2 3 3 3 3 5 4 4 4 4 5 5 6 5 5 6 5 5 5 5 4 3 1 1 3 2 2 2 1 1 4 6 7
3 3 3 4 4 6 11 10 8 2 3 4 4 4 4 4 8 6 3 5 6 6 7 8 8 8 8 8 6 3 3 3 2 2 3 3 2 1 1 1 2 5 6
2 2 3 3 3 4 9 11 8 2 3 4 5 5 6 7 10 8 4 4 6 7 5 5 5 7 6 7 8 6 5 4 3 3 3 4 3 3 1 1 1 2 3
Wind_Direction
41 36 29 15 0 353 353 350 347 343 343 341 342 350 303 219 216 193 256 214 196 195 197 194 184 180 177 174 167 160 156 151 143 137 128 122 118 118 117 115 114 112 111
66 53 31 17 5 355 357 1 353 348 337 340 350 350 344 353 220 176 209 232 205 196 193 197 194 185 181 176 172 167 159 158 154 148 140 134 130 129 126 122 121 120 117
70 66 39 19 354 355 9 10 1 359 359 1 351 344 354 13 83 174 166 172 213 210 203 203 201 191 187 181 180 175 168 162 161 156 151 146 141 138 134 132 128 127 125
66 61 44 10 348 5 9 5 4 356 354 352 340 334 351 1 3 89 132 169 194 232 216 205 206 198 192 187 184 182 176 171 166 164 158 155 149 146 142 140 136 134 133
55 63 45 2 2 15 6 356 11 358 346 341 332 350 0 359 348 51 97 159 183 184 186 200 206 197 194 193 189 188 182 178 174 170 166 161 157 155 152 149 145 143 143
59 63 43 13 16 20 6 360 355 355 342 336 357 12 2 358 17 43 80 78 82 138 128 126 165 206 202 198 193 191 186 183 178 175 173 168 164 162 160 158 155 153 154
67 64 40 17 19 22 4 360 1 0 354 360 30 9 1 14 31 26 27 60 64 73 103 122 142 171 209 204 201 195 189 189 183 181 177 175 172 168 167 166 166 164 162
61 60 54 32 21 20 15 15 22 11 355 16 56 53 10 358 2 15 17 38 49 53 68 116 119 138 180 167 201 195 192 187 187 184 181 179 175 172 171 172 172 171 169
86 59 58 53 35 41 13 3 21 38 6 352 40 104 99 324 325 345 4 13 22 41 29 39 82 143 175 168 181 201 193 189 188 189 187 183 178 177 174 176 178 177 174
251 294 47 51 46 36 6 350 29 33 51 2 348 22 149 170 137 346 341 353 6 19 11 10 54 243 161 162 186 195 197 193 191 192 190 189 187 183 182 182 183 183 181
285 279 14 45 40 13 354 4 17 24 50 51 359 350 16 39 86 130 321 335 349 342 342 332 346 238 176 172 206 204 194 191 193 196 197 197 197 192 190 188 188 189 188
299 287 269 259 287 343 340 350 11 22 21 36 17 27 56 55 34 117 176 293 310 314 332 330 318 276 201 177 219 196 189 190 192 193 197 200 201 197 195 195 193 192 192
269 269 258 239 247 273 313 5 28 11 12 25 357 350 5 244 200 148 131 234 305 313 333 330 293 253 218 168 230 186 183 189 194 192 190 196 200 203 201 202 202 199 198
239 246 243 240 248 263 308 24 12 332 5 11 349 349 353 317 137 150 154 142 41 341 336 300 310 268 252 198 212 179 183 184 190 195 194 196 199 204 203 202 203 201 200
245 235 236 241 254 260 261 223 322 309 344 350 325 331 335 322 357 128 148 150 145 158 295 284 291 287 252 207 199 178 189 200 199 199 196 197 201 204 204 203 203 201 200
290 265 269 256 250 254 249 239 278 290 324 321 306 327 325 310 340 6 132 152 156 162 229 266 260 272 263 213 190 191 211 207 215 206 199 199 200 201 203 204 200 196 194
326 292 274 250 236 242 244 247 282 290 301 309 316 309 291 287 317 331 40 85 146 154 198 274 280 301 310 251 208 214 219 211 222 213 204 206 200 195 195 199 194 192 192
358 335 317 300 274 256 244 235 261 269 273 283 282 286 284 274 291 297 316 258 217 189 180 236 283 286 262 242 231 221 217 214 216 210 204 202 197 194 194 191 187 186 187
360 4 8 352 309 280 262 254 255 263 260 263 260 249 256 234 254 261 241 248 251 214 178 195 243 256 269 256 231 254 210 303 231 201 200 201 197 191 189 185 181 180 181
17 7 357 342 324 326 327 311 282 277 280 279 271 253 248 227 223 229 232 242 239 219 191 193 228 242 248 254 177 199 234 279 254 217 199 189 193 192 190 186 182 180 181
18 5 3 354 347 345 338 327 306 325 303 301 298 277 261 243 233 222 214 222 210 206 200 209 232 230 229 210 210 201 204 238 283 222 179 214 186 195 205 198 190 182 179
7 11 7 359 355 353 344 343 349 325 323 315 310 301 288 269 267 256 246 224 200 196 203 207 224 223 229 219 207 192 185 184 251 227 170 220 176 204 216 200 190 183 181
6 6 359 360 350 340 353 356 353 344 311 305 303 311 310 300 277 269 270 260 244 234 212 200 211 226 225 216 196 199 203 198 216 210 158 214 195 215 221 202 191 186 181
3 357 356 357 357 353 358 354 352 356 325 307 292 286 293 301 300 286 269 266 261 256 242 227 221 229 227 217 200 200 199 197 232 234 166 192 199 211 210 200 197 190 185
2 356 356 4 4 348 359 0 3 353 336 322 313 309 301 291 297 299 283 271 272 271 259 242 237 239 236 224 200 167 167 170 222 232 188 176 184 175 181 219 211 196 188
354 356 5 0 360 347 358 8 12 11 341 327 325 323 318 321 317 308 276 263 268 270 267 263 254 254 247 238 213 197 193 190 196 223 204 173 175 156 191 235 195 186 189